TimeEET,TemperatureF,Dew PointF,Humidity,Sea Level PressureIn,VisibilityMPH,Wind Direction,Wind SpeedMPH,Gust SpeedMPH,PrecipitationIn,Events,Conditions,WindDirDegrees,DateUTC
12:00 AM,57.2,42.8,59,29.95,-9999.0,NW,10.4,-,N/A,,Clear,310,2013-01-05 22:00:00
1:00 AM,55.4,41.0,58,29.95,-9999.0,NW,11.5,-,N/A,,Clear,320,2013-01-05 23:00:00
2:00 AM,54,42,53,29.96,6,NW,13.8,,,,,310,2013-01-06 00:00:00
2:00 AM,53.6,41.0,62,29.95,-9999.0,NW,13.8,-,N/A,,Clear,310,2013-01-06 00:00:00
3:00 AM,55.4,39.2,54,29.95,-9999.0,WNW,11.5,-,N/A,,Clear,290,2013-01-06 01:00:00
4:00 AM,55.4,39.2,54,29.95,-9999.0,WNW,9.2,-,N/A,,Clear,290,2013-01-06 02:00:00
5:00 AM,53.6,39.2,58,29.95,-9999.0,NW,13.8,-,N/A,,Clear,310,2013-01-06 03:00:00
6:00 AM,53.6,39.2,58,29.98,-9999.0,WNW,6.9,-,N/A,,Clear,290,2013-01-06 04:00:00
7:00 AM,55.4,39.2,54,29.98,-9999.0,NW,8.1,-,N/A,,Clear,310,2013-01-06 05:00:00
8:00 AM,59,40,37,30.01,6,NW,9.2,,,,,320,2013-01-06 06:00:00
8:00 AM,59.0,39.2,48,30.01,-9999.0,NW,9.2,-,N/A,,Clear,320,2013-01-06 06:00:00
9:00 AM,66.2,41.0,40,30.01,-9999.0,North,4.6,-,N/A,,Clear,350,2013-01-06 07:00:00
10:00 AM,66.2,37.4,35,30.01,6.2,WNW,20.7,-,N/A,,Partly Cloudy,300,2013-01-06 08:00:00
11:00 AM,68.0,37.4,33,30.01,6.2,WNW,17.3,-,N/A,,Partly Cloudy,300,2013-01-06 09:00:00
12:00 PM,69.8,39.2,33,29.95,6.2,NW,19.6,-,N/A,,Partly Cloudy,310,2013-01-06 10:00:00
1:00 PM,69.8,37.4,31,29.92,6.2,WNW,20.7,-,N/A,,Scattered Clouds,290,2013-01-06 11:00:00
2:00 PM,71,37,18,29.92,6,WNW,20.7,,,,Partly Cloudy,300,2013-01-06 12:00:00
2:00 PM,69.8,37.4,31,29.92,6.2,WNW,20.7,-,N/A,,Scattered Clouds,300,2013-01-06 12:00:00
3:00 PM,69.8,37.4,31,29.89,6.2,WNW,18.4,-,N/A,,Scattered Clouds,290,2013-01-06 13:00:00
4:00 PM,69.8,37.4,31,29.92,6.2,WNW,13.8,-,N/A,,Scattered Clouds,300,2013-01-06 14:00:00
5:00 PM,68.0,37.4,33,29.92,6.2,WNW,18.4,-,N/A,,Scattered Clouds,300,2013-01-06 15:00:00
6:00 PM,66.2,37.4,35,29.92,6.2,WNW,13.8,-,N/A,,Scattered Clouds,290,2013-01-06 16:00:00
7:00 PM,64.4,37.4,37,29.92,6.2,WNW,15.0,-,N/A,,Scattered Clouds,300,2013-01-06 17:00:00
8:00 PM,62,37,28,29.95,6,NW,13.8,,,,Partly Cloudy,310,2013-01-06 18:00:00
8:00 PM,62.6,37.4,39,29.95,6.2,NW,13.8,-,N/A,,Scattered Clouds,310,2013-01-06 18:00:00
9:00 PM,62.6,37.4,39,29.95,6.2,WNW,13.8,-,N/A,,Scattered Clouds,300,2013-01-06 19:00:00
10:00 PM,57.2,33.8,41,29.95,6.2,SSW,2.3,-,N/A,,Scattered Clouds,210,2013-01-06 20:00:00
11:00 PM,53.6,33.8,47,29.95,-9999.0,SW,2.3,-,N/A,,Clear,220,2013-01-06 21:00:00